This is the latest recevied weather packets stored in our database for station/object AD5L. If no packets are shown the sender has not sent any weather packets the latest 10 day(s).
| Time | Temp. | Humidity | Pressure | Rain* | Wind** | Luminosity | Snow |
|---|---|---|---|---|---|---|---|
| 1777250627 | 27.78° C | 79% | 1006.7 hPa | 0 mm | - | - | - |
| 1777250020 | 27.78° C | 79% | 1006.5 hPa | 0 mm | - | - | - |
| 1777249429 | 28.33° C | 79% | 1006.7 hPa | 0 mm | - | - | - |
| 1777248811 | 28.33° C | 78% | 1006.7 hPa | 0 mm | - | - | - |
| 1777248228 | 28.33° C | 77% | 1006.4 hPa | 0 mm | - | - | - |
| 1777247608 | 28.89° C | 75% | 1006.8 hPa | 0 mm | - | - | - |
| 1777247019 | 29.44° C | 74% | 1006.8 hPa | 0 mm | - | - | - |
| 1777246410 | 29.44° C | 72% | 1006.9 hPa | 0 mm | - | - | - |
| 1777245821 | 29.44° C | 72% | 1006.9 hPa | 0 mm | - | - | - |
| 1777245212 | 29.44° C | 72% | 1007.1 hPa | 0 mm | - | - | - |
| 1777244620 | 30° C | 73% | 1007.1 hPa | 0 mm | - | - | - |
| 1777244009 | 30° C | 72% | 1006.9 hPa | 0 mm | - | - | - |
| 1777243420 | 30.56° C | 71% | 1007 hPa | 0 mm | - | - | - |
| 1777242811 | 30.56° C | 70% | 1006.8 hPa | 0 mm | - | - | - |
| 1777242222 | 30.56° C | 70% | 1006.5 hPa | 0 mm | - | - | - |
| 1777241608 | 30° C | 72% | 1006.6 hPa | 0 mm | - | - | - |
| 1777241015 | 30.56° C | 71% | 1007 hPa | 0 mm | - | - | - |
| 1777240406 | 30° C | 72% | 1007.1 hPa | 0 mm | - | - | - |
| 1777239817 | 30° C | 72% | 1007.1 hPa | 0 mm | - | - | - |
| 1777239207 | 30° C | 71% | 1007.2 hPa | 0 mm | - | - | - |
| 1777238613 | 30° C | 71% | 1007.4 hPa | 0 mm | - | - | - |
| 1777238025 | 30° C | 70% | 1007.5 hPa | 0 mm | - | - | - |
| 1777237418 | 30.56° C | 71% | 1007.7 hPa | 0 mm | - | - | - |
| 1777236829 | 30° C | 72% | 1007.6 hPa | 0 mm | - | - | - |
| 1777236219 | 30° C | 69% | 1008 hPa | 0 mm | - | - | - |
* Rain latest hour (hover to see other rain measurements)
** Current wind speed in m/s (hover to see current wind gust speed)